Weather History for Fayetteville, AR

Change the Weather History Date:

Saturday, December 1, 2012

  Actual Average Record
Temperature  
Mean Temperature 64 °F 41 °F  
Max Temperature 71 °F 52 °F 73 °F (2000)
Min Temperature 56 °F 30 °F 13 °F (1985)
Degree Days  
Heating Degree Days 1 24  
Month to date heating degree days 1 24  
Since 1 July heating degree days 814 853  
Growing Degree Days 14 (Base 50)    
Moisture  
Dew Point 56 °F    
Average Humidity 74    
Maximum Humidity 87    
Minimum Humidity 61    
Precipitation  
Precipitation 0.00 in 0.12 in 0.48 in (1955)
Month to date precipitation 0.00 0.12  
Year to date precipitation 27.91 45.39  
Sea Level Pressure  
Sea Level Pressure 29.99 in    
Wind  
Wind Speed 15 mph (South)    
Max Wind Speed 29 mph    
Max Gust Speed 40 mph    
Visibility 10 miles    
Events      
T = Trace of Precipitation, MM = Missing Value Source: NWS Daily Summary

Daily Weather History Graph

Daily Weather History Graph

Search for Another Location

Airport:

Trip Planner

Search our weather history database for the weather conditions in past years. The results will help you decide how hot, cold, wet, or windy it might be!

Date:

Astronomy

Dec. 01, 2012 Rise Set
Actual Time 7:09 AM CST 5:02 PM CST
Civil Twilight 6:41 AM CST 5:30 PM CST
Nautical Twilight 6:09 AM CST 6:02 PM CST
Astronomical Twilight 5:38 AM CST 6:33 PM CST
Moon 7:51 PM CST (12/1) 9:23 AM CST (12/1)
Length of Visible Light 10h 49m
Length of Day
9h 53m
Waning Gibbous, 91% of the Moon is Illuminated
Dec 1
Waning Gibbous
Dec 6
Last Quarter
Dec 13
New
Dec 19
First Quarter
Dec 28
Full

Hourly Weather History & Observations

Time (CST) Temp. Dew Point Humidity Pressure Visibility Wind Dir Wind Speed Gust Speed Precip Events Conditions
12:16 AM 57.2 °F 53.6 °F 88% 30.08 in 10.0 mi Variable 6.9 mph - N/A   Mostly Cloudy
12:53 AM 57.9 °F 53.1 °F 84% 30.05 in 10.0 mi South 9.2 mph - N/A   Scattered Clouds
1:09 AM 59.0 °F 53.6 °F 82% 30.07 in 10.0 mi South 12.7 mph - N/A   Mostly Cloudy
1:42 AM 57.2 °F 53.6 °F 88% 30.07 in 10.0 mi South 11.5 mph - N/A   Scattered Clouds
1:53 AM 57.9 °F 53.1 °F 84% 30.04 in 10.0 mi South 11.5 mph - N/A   Clear
2:53 AM 57.0 °F 53.1 °F 87% 30.04 in 10.0 mi South 6.9 mph - N/A   Clear
3:53 AM 57.2 °F 53.6 °F 88% 30.05 in 10.0 mi South 9.2 mph - N/A   Clear
4:53 AM 57.9 °F 54.0 °F 87% 30.02 in 10.0 mi South 13.8 mph - N/A   Clear
5:39 AM 57.2 °F 55.4 °F 94% 30.04 in 10.0 mi South 8.1 mph - N/A   Mostly Cloudy
5:53 AM 59.0 °F 55.0 °F 87% 30.03 in 7.0 mi South 10.4 mph 18.4 mph N/A   Overcast
6:53 AM 59.0 °F 55.0 °F 87% 30.03 in 7.0 mi South 13.8 mph - N/A   Overcast
7:53 AM 60.1 °F 55.0 °F 83% 30.02 in 7.0 mi South 13.8 mph 21.9 mph N/A   Mostly Cloudy
8:53 AM 61.0 °F 55.9 °F 83% 30.02 in 8.0 mi South 13.8 mph 19.6 mph N/A   Overcast
9:53 AM 63.0 °F 57.0 °F 81% 30.02 in 7.0 mi South 18.4 mph 24.2 mph N/A   Overcast
10:53 AM 64.9 °F 57.0 °F 75% 30.00 in 10.0 mi South 20.7 mph 27.6 mph N/A   Scattered Clouds
11:53 AM 68.0 °F 57.0 °F 68% 29.96 in 10.0 mi South 23.0 mph 33.4 mph N/A   Scattered Clouds
12:53 PM 70.0 °F 57.9 °F 65% 29.92 in 10.0 mi South 19.6 mph 31.1 mph N/A   Scattered Clouds
1:53 PM 70.0 °F 57.0 °F 63% 29.90 in 10.0 mi South 17.3 mph 32.2 mph N/A   Scattered Clouds
2:53 PM 69.8 °F 55.4 °F 60% 29.92 in 10.0 mi South 20.7 mph 34.5 mph N/A   Mostly Cloudy
3:53 PM 69.1 °F 55.9 °F 63% 29.90 in 10.0 mi South 17.3 mph 32.2 mph N/A   Scattered Clouds
4:53 PM 66.0 °F 55.9 °F 70% 29.90 in 10.0 mi South 16.1 mph 25.3 mph N/A   Clear
5:53 PM 66.0 °F 57.0 °F 73% 29.89 in 10.0 mi South 12.7 mph - N/A   Clear
6:53 PM 66.0 °F 57.0 °F 73% 29.93 in 10.0 mi South 11.5 mph - N/A   Clear
7:53 PM 64.9 °F 57.9 °F 78% 29.94 in 10.0 mi South 18.4 mph - N/A   Partly Cloudy
8:53 PM 66.0 °F 57.9 °F 75% 29.95 in 10.0 mi South 13.8 mph - N/A   Clear
9:53 PM 66.0 °F 59.0 °F 78% 29.96 in 10.0 mi South 15.0 mph 23.0 mph N/A   Clear
10:53 PM 66.0 °F 59.0 °F 78% 29.96 in 10.0 mi South 12.7 mph 26.5 mph N/A   Clear
11:53 PM 64.9 °F 59.0 °F 81% 29.95 in 10.0 mi South 12.7 mph - N/A   Clear